FW7275 Weather Reports


Display with metric or nautical units.
time (UTC)temp
F
wind
direction
speed
MPH
gust
MPH
rain 1hr
in
rain 24hr
in
rain mn
in
humidity
%
barometer
mb
20260503005028 46 0 0.0 0.0 0.00 0.00 0.00 74
20260503002019 47 0 0.0 0.0 0.00 0.00 0.00 73
20260503001021 47 0 0.0 0.0 0.00 0.00 0.00 72
20260502235032 48 0 0.0 0.0 0.00 0.00 0.00 71
20260502234023 48 0 0.0 0.0 0.00 0.00 0.00 71
20260502233034 48 0 0.0 0.0 0.00 0.00 0.00 70
20260502232031 48 0 0.0 0.0 0.00 0.00 0.00 71
20260502230041 49 0 0.0 0.0 0.00 0.00 0.00 70
20260502225023 50 0 0.0 0.0 0.00 0.00 0.00 69
20260502224025 50 0 0.0 0.0 0.00 0.00 0.00 68
20260502223029 50 0 0.0 0.0 0.00 0.00 0.00 68
20260502222030 51 0 0.0 0.0 0.00 0.00 0.00 68
20260502221024 51 0 0.0 0.0 0.00 0.00 0.00 67
20260502220041 51 0 0.0 0.0 0.00 0.00 0.00 66
20260502215035 52 0 0.0 0.0 0.00 0.00 0.00 66
20260502214023 52 0 0.0 0.0 0.00 0.00 0.00 65
20260502213029 53 0 0.0 0.0 0.00 0.00 0.00 64
20260502212027 54 0 0.0 0.0 0.00 0.00 0.00 64
20260502211024 54 0 0.0 0.0 0.00 0.00 0.00 63
20260502210032 55 0 0.0 0.0 0.00 0.00 0.00 62
20260502205033 55 0 0.0 0.0 0.00 0.00 0.00 61
20260502204030 56 0 0.0 0.0 0.00 0.00 0.00 59
20260502203031 56 0 0.0 0.0 0.00 0.00 0.00 58
20260502202026 57 0 0.0 0.0 0.00 0.00 0.00 57
20260502201023 59 0 0.0 0.0 0.00 0.00 0.00 55
20260502200045 59 0 0.0 0.0 0.00 0.00 0.00 54
20260502195025 60 0 0.0 0.0 0.00 0.00 0.00 51
20260502194021 61 0 0.0 0.0 0.00 0.00 0.00 51
20260502193023 62 0 0.0 0.0 0.00 0.00 0.00 50
20260502192023 62 0 0.0 0.0 0.00 0.00 0.00 49
20260502191033 63 0 0.0 0.0 0.00 0.00 0.00 48
20260502190039 64 0 0.0 0.0 0.00 0.00 0.00 46
20260502185026 65 0 0.0 0.0 0.00 0.00 0.00 45
20260502184029 67 0 0.0 0.0 0.00 0.00 0.00 42
20260502182029 70 0 0.0 0.0 0.00 0.00 0.00 37
20260502181022 71 0 0.0 0.0 0.00 0.00 0.00 35
20260502163035 79 0 0.0 0.0 0.00 0.00 0.00 27
20260502162031 79 0 0.0 0.0 0.00 0.00 0.00 27
20260502161030 79 0 0.0 0.0 0.00 0.00 0.00 28
20260502152029 81 0 0.0 0.0 0.00 0.00 0.00 25
20260502151021 82 0 0.0 0.0 0.00 0.00 0.00 25
20260502123033 80 0 0.0 0.0 0.00 0.00 0.00 32
20260502122026 80 0 0.0 0.0 0.00 0.00 0.00 32
20260502121034 80 0 0.0 0.0 0.00 0.00 0.00 32
20260502115033 80 0 0.0 0.0 0.00 0.00 0.00 32
20260502113035 79 0 0.0 0.0 0.00 0.00 0.00 33
20260502112020 79 0 0.0 0.0 0.00 0.00 0.00 34
20260502111027 77 0 0.0 0.0 0.00 0.00 0.00 36
20260502110036 78 0 0.0 0.0 0.00 0.00 0.00 36
20260502105021 77 0 0.0 0.0 0.00 0.00 0.00 36
20260502104034 77 0 0.0 0.0 0.00 0.00 0.00 36
20260502103030 78 0 0.0 0.0 0.00 0.00 0.00 36
20260502102031 76 0 0.0 0.0 0.00 0.00 0.00 36
20260502071020 62 0 0.0 0.0 0.00 0.00 0.00 54
20260502070028 61 0 0.0 0.0 0.00 0.00 0.00 55
20260502064028 59 0 0.0 0.0 0.00 0.00 0.00 57
20260502063039 58 0 0.0 0.0 0.00 0.00 0.00 58
20260502062028 58 0 0.0 0.0 0.00 0.00 0.00 59
20260502061028 57 0 0.0 0.0 0.00 0.00 0.00 60
20260502055030 54 0 0.0 0.0 0.00 0.00 0.00 64
20260502054023 51 0 0.0 0.0 0.00 0.00 0.00 67
20260502053029 48 0 0.0 0.0 0.00 0.00 0.00 69
20260502051020 45 0 0.0 0.0 0.00 0.00 0.00 73
20260502050032 43 0 0.0 0.0 0.00 0.00 0.00 76
20260502045025 37 0 0.0 0.0 0.00 0.00 0.00 81
20260502044024 37 0 0.0 0.0 0.00 0.00 0.00 81
20260502043022 37 0 0.0 0.0 0.00 0.00 0.00 81
20260502042019 37 0 0.0 0.0 0.00 0.00 0.00 81
20260502041021 37 0 0.0 0.0 0.00 0.00 0.00 81
20260502040033 37 0 0.0 0.0 0.00 0.00 0.00 80
20260502035031 37 0 0.0 0.0 0.00 0.00 0.00 80
20260502034032 37 0 0.0 0.0 0.00 0.00 0.00 80
20260502033032 37 0 0.0 0.0 0.00 0.00 0.00 80
20260502032022 37 0 0.0 0.0 0.00 0.00 0.00 80
20260502031034 37 0 0.0 0.0 0.00 0.00 0.00 80
20260502030036 37 0 0.0 0.0 0.00 0.00 0.00 80
20260502025034 38 0 0.0 0.0 0.00 0.00 0.00 80
20260502023038 38 0 0.0 0.0 0.00 0.00 0.00 79
20260502022021 38 0 0.0 0.0 0.00 0.00 0.00 78
20260502015028 39 0 0.0 0.0 0.00 0.00 0.00 77
20260502014027 39 0 0.0 0.0 0.00 0.00 0.00 76
20260502013026 40 0 0.0 0.0 0.00 0.00 0.00 76
20260502011027 40 0 0.0 0.0 0.00 0.00 0.00 74
20260502010028 41 0 0.0 0.0 0.00 0.00 0.00 75